User: anonymous   Login
Location: Newark
(44.3681°N, 100.3364°W)
Time: 07:04:20
(UTC+00:00)
Language:

Transit 2A Rocket - Orbit

View from above orbital plane
View from above orbital plane
View from above satellite
View from above satellite

Ground track
Ground track

The orbit data is extracted from the following two-line orbital elements,

1    47U 60007C   20055.54447461 -.00000018 +00000-0 +21150-4 0  9994
2    47 066.6651 099.6015 0224782 024.8271 336.3449 14.42073067118255
Epoch (UTC): 24 February 2020 13:04:02
Eccentricity: 0.0224782
inclination: 66.6651°
perigee height: 591 km
apogee height: 912 km
right ascension of ascending node: 99.6015°
argument of perigee: 24.8271°
revolutions per day: 14.42073067
mean anomaly at epoch: 336.3449°
orbit number at epoch: 11825

The dashed part of the orbit path shows where the satellite is in the earth's shadow,  

DLR